Retour au catalogue

COSMOS 374 DEB *

ActifLEO
NORAD 17725·DEBRIS·🇷🇺 Russia

Lancé Oct 23, 1970 depuis Baikonur Cosmodrome

Loading…

Prochains Passages (prochaines 24 heures)

TLE

FraisSource: Space-Track

Époque: Sep 14, 2026, 22:53 UTC

1 17725U 70089DC  26257.95389888  .00001217  00000-0  36475-3 0  9995
2 17725  62.7318 137.4646 0811617 117.6784 276.2464 13.35748809986462

Suivez COSMOS 374 DEB * en temps réel avec AllMySat

Download on the App Store